TimePST,TemperatureF,Dew PointF,Humidity,Sea Level PressureIn,VisibilityMPH,Wind Direction,Wind SpeedMPH,Gust SpeedMPH,PrecipitationIn,Events,Conditions,WindDirDegrees,DateUTC
12:53 AM,60.1,54.0,80,29.98,4.0,Calm,Calm,-,N/A,,Haze,0,2012-12-09 08:53:00
1:53 AM,59.0,54.0,83,29.99,4.0,ENE,4.6,-,N/A,,Haze,60,2012-12-09 09:53:00
2:53 AM,59.0,53.1,81,29.99,4.0,NE,3.5,-,N/A,,Haze,40,2012-12-09 10:53:00
3:12 AM,59.0,53.6,82,29.98,4.0,ENE,5.8,-,N/A,,Haze,60,2012-12-09 11:12:00
3:53 AM,59.0,53.6,82,29.98,4.0,NE,4.6,-,N/A,,Haze,40,2012-12-09 11:53:00
4:53 AM,57.9,53.1,84,29.99,4.0,ENE,4.6,-,N/A,,Haze,60,2012-12-09 12:53:00
5:53 AM,57.0,52.0,83,30.01,3.0,NE,4.6,-,N/A,,Haze,50,2012-12-09 13:53:00
6:53 AM,55.9,51.1,84,30.02,3.0,ENE,4.6,-,N/A,,Haze,60,2012-12-09 14:53:00
7:32 AM,57.2,51.8,82,30.02,2.5,Calm,Calm,-,N/A,,Haze,0,2012-12-09 15:32:00
7:53 AM,57.0,52.0,83,30.03,2.5,Calm,Calm,-,N/A,,Haze,0,2012-12-09 15:53:00
8:53 AM,60.1,52.0,75,30.05,2.5,Calm,Calm,-,N/A,,Haze,0,2012-12-09 16:53:00
9:53 AM,62.1,53.1,72,30.06,2.5,Calm,Calm,-,N/A,,Haze,0,2012-12-09 17:53:00
10:00 AM,62.6,53.6,72,30.07,2.5,Calm,Calm,-,N/A,,Haze,0,2012-12-09 18:00:00
10:13 AM,62.6,53.6,72,30.06,3.0,North,-9999.0,-,N/A,,Haze,0,2012-12-09 18:13:00
10:20 AM,62.6,53.6,72,30.06,2.5,Calm,Calm,-,N/A,,Haze,0,2012-12-09 18:20:00
10:53 AM,63.0,53.1,70,30.05,2.5,WNW,3.5,-,N/A,,Haze,300,2012-12-09 18:53:00
10:59 AM,62.6,53.6,72,30.05,3.0,Calm,Calm,-,N/A,,Haze,0,2012-12-09 18:59:00
11:17 AM,62.6,53.6,72,30.05,2.5,Calm,Calm,-,N/A,,Haze,0,2012-12-09 19:17:00
11:25 AM,64.4,53.6,68,30.04,3.0,Calm,Calm,-,N/A,,Haze,0,2012-12-09 19:25:00
11:53 AM,66.0,53.1,63,30.03,3.0,North,3.5,-,N/A,,Haze,360,2012-12-09 19:53:00
12:53 PM,64.9,53.1,65,30.00,4.0,SW,5.8,-,N/A,,Haze,230,2012-12-09 20:53:00
1:53 PM,66.0,54.0,65,30.00,4.0,South,4.6,-,N/A,,Haze,180,2012-12-09 21:53:00
2:53 PM,64.0,53.1,67,30.01,4.0,South,6.9,-,N/A,,Haze,180,2012-12-09 22:53:00
3:53 PM,63.0,53.1,70,30.02,4.0,South,4.6,-,N/A,,Haze,170,2012-12-09 23:53:00
4:53 PM,62.1,53.1,72,30.04,4.0,Calm,Calm,-,N/A,,Haze,0,2012-12-10 00:53:00
5:53 PM,60.1,53.1,78,30.06,4.0,WNW,3.5,-,N/A,,Haze,300,2012-12-10 01:53:00
6:53 PM,60.1,53.1,78,30.07,4.0,WNW,3.5,-,N/A,,Haze,300,2012-12-10 02:53:00
7:53 PM,57.9,53.1,84,30.09,3.0,Calm,Calm,-,N/A,,Haze,0,2012-12-10 03:53:00
8:53 PM,57.0,52.0,83,30.10,2.5,Calm,Calm,-,N/A,,Haze,0,2012-12-10 04:53:00
9:53 PM,55.9,52.0,87,30.11,2.5,Calm,Calm,-,N/A,,Clear,0,2012-12-10 05:53:00
10:53 PM,54.0,50.0,86,30.12,2.5,Calm,Calm,-,N/A,,Partly Cloudy,0,2012-12-10 06:53:00
11:15 PM,53.6,50.0,88,30.12,2.0,Calm,Calm,-,N/A,,Mostly Cloudy,0,2012-12-10 07:15:00
11:30 PM,53.6,50.0,88,30.12,3.0,Calm,Calm,-,N/A,,Scattered Clouds,0,2012-12-10 07:30:00
11:38 PM,53.6,48.2,82,30.12,2.5,Calm,Calm,-,N/A,,Mostly Cloudy,0,2012-12-10 07:38:00
11:46 PM,53.6,50.0,88,30.12,2.5,Calm,Calm,-,N/A,,Mostly Cloudy,0,2012-12-10 07:46:00
11:53 PM,53.1,50.0,89,30.12,2.5,Calm,Calm,-,N/A,,Mostly Cloudy,0,2012-12-10 07:53:00